World > North America > United States > Texas

Pettus, Texas Regional Weather

Lat: 28.58N, Lon: 97.8W
Wx Zone: TXZ232Web Search

Our weather pages are very print friendly and they make great conversation starters.

Feedback


°F Click to change Pettus hourly weather to Imperial units.Click to change Pettus hourly weather to Metric units. °C
Pettus Weather Map
UTC Time: 4/11/2021, 04:34
Your Time:

Pettus, TX Regional Weather

Expires:202104110500;;364866
ASUS44 KSJT 110415
RWRSJT
WEST CENTRAL TEXAS REGIONAL WEATHER ROUNDUP
NATIONAL WEATHER SERVICE SAN ANGELO TX
1100 PM CDT SAT APR 10 2021

NOTE: "FAIR" INDICATES FEW OR NO CLOUDS BELOW 12,000 FEET WITH NO
SIGNIFICANT WEATHER AND/OR OBSTRUCTIONS TO VISIBILITY.


TXZ229-232-234-239-242-243-245-247-249-250-
253-255-257-343-347-443-110500-
TEXAS COASTAL BEND, RIO GRANDE PLAINS DEEP SOUTH TEXAS
  
CITY           SKY/WX    TMP DP  RH WIND       PRES   REMARKS
VICTORIA       CLEAR     62  45  53 N8        29.79R                  
BEEVILLE       FAIR      72  42  34 NE9       29.78R                  
ROCKPORT       LGT RAIN  72  66  81 NE10      29.77R                  
PORT ARANSAS   CLEAR     71  67  87 NE7       29.79R                  
PORT LAVACA    CLEAR     67  47  47 E6        29.80R                  
CORPUS CHRISTI CLEAR     72  62  71 E8        29.77R                  
KINGSVILLE NAS CLEAR     68  58  70 E7        29.76R                  
COTULLA        CLEAR     75  33  21 E10       29.78R                  
LAREDO         CLEAR     76  45  33 NE10      29.75R                  
BROWNSVILLE    CLOUDY    75  67  76 NE6       29.74R                  
PORT ISABEL    CLOUDY    74  68  81 E10       29.74S                  
HEBBRONVILLE   CLEAR     71  51  50 SE5       29.79R                  
MCALLEN        CLEAR     73  64  73 E10       29.76R                  
WESLACO        NOT AVBL                                               
FALFURRIAS     CLEAR     65  58  77 CALM      29.77R            

SKY/WX - Weather  TMP - Temperature  DP - Dew Point  RH - Relative Humidity
WIND - Wind Direction/Speed PRES - Barometric Pressure VSB - Visibility
WCI - Wind Chill Index E13G22 Wind - East Wind 13 mph/Gusts of 22 mph